Springfield, OH

1:33 AM EDT on July 24, 2017 (GMT -0400)
Springfield-Beckley Municipal

Weather History for KSGH - December, 2012

Change the Weather History Date:

Tuesday, December 11, 2012

  Actual Average (KFFO) Record (KFFO)
Temperature  
Mean Temperature 28 °F -  
Max Temperature 30 °F 40 °F 64 °F (2007)
Min Temperature 24 °F 26 °F 10 °F (2013)
Degree Days  
Heating Degree Days 38    
Moisture  
Dew Point 25 °F    
Average Humidity 83    
Maximum Humidity 93    
Minimum Humidity 67    
Precipitation  
Precipitation 0.00 in - - ()
Sea Level Pressure  
Sea Level Pressure 30.06 in    
Wind  
Wind Speed 10 mph (WSW)    
Max Wind Speed 14 mph    
Max Gust Speed -    
Visibility 4 miles    
Events Rain    
Averages and records for this station are not official NWS values.
T = Trace of Precipitation, MM = Missing Value Source: NWS Daily Summary

Daily Weather History Graph

Daily Weather History Graph

Search for Another Location

Airport or City:

Trip Planner

Search our weather history database for the weather conditions in past years. The results will help you decide how hot, cold, wet, or windy it might be!

Date:

Astronomy

Dec. 11, 2012 Rise Set
Actual Time 7:46 AM EST 5:10 PM EST
Civil Twilight 7:16 AM EST 5:41 PM EST
Nautical Twilight 6:42 AM EST 6:14 PM EST
Astronomical Twilight 6:09 AM EST 6:47 PM EST
Moon 5:40 AM EST (12/11) 3:48 PM EST (12/11)
Length of Visible Light 10h 24m
Length of Day
9h 23m
Waning Crescent, 4% of the Moon is Illuminated
Dec 11
Waning Crescent
Dec 13
New
Dec 20
First Quarter
Dec 28
Full
Jan 4
Last Quarter

Hourly Weather History & Observations

Time (EST) Temp. Windchill Dew Point Humidity Pressure Visibility Wind Dir Wind Speed Gust Speed Precip Events Conditions
12:56 AM 29.1 °F 20.0 °F 27.1 °F 92% 29.95 in 2.0 mi West 10.4 mph - N/A   Overcast
1:33 AM 30.2 °F 21.3 °F 28.4 °F 93% 29.92 in 3.0 mi West 10.4 mph - N/A   Overcast
1:56 AM 30.0 °F 21.1 °F 28.0 °F 92% 29.95 in 3.0 mi West 10.4 mph - N/A   Overcast
2:08 AM 30.2 °F 21.3 °F 28.4 °F 93% 29.93 in 3.0 mi WSW 10.4 mph - 0.00 in   Overcast
2:21 AM 30.2 °F 21.3 °F 28.4 °F 93% 29.93 in 2.5 mi West 10.4 mph - 0.00 in   Overcast
2:45 AM 30.2 °F 21.3 °F 28.4 °F 93% 29.94 in 2.0 mi West 10.4 mph - 0.00 in Rain Light Freezing Rain
2:56 AM 30.0 °F 21.7 °F 28.0 °F 92% 29.97 in 1.8 mi West 9.2 mph - 0.00 in Rain Light Freezing Rain
3:03 AM 30.2 °F 21.3 °F 28.4 °F 93% 29.94 in 1.8 mi West 10.4 mph - 0.00 in Rain Light Freezing Rain
3:15 AM 30.2 °F 21.3 °F 28.4 °F 93% 29.94 in 2.0 mi West 10.4 mph - 0.00 in Rain Light Freezing Rain
3:31 AM 30.2 °F 20.8 °F 28.4 °F 93% 29.95 in 2.5 mi West 11.5 mph - 0.00 in Rain Light Freezing Rain
3:45 AM 30.2 °F 20.8 °F 28.4 °F 93% 29.95 in 2.5 mi West 11.5 mph - 0.00 in   Overcast
3:56 AM 30.0 °F 20.0 °F 28.0 °F 92% 29.99 in 3.0 mi West 12.7 mph - 0.00 in   Overcast
4:56 AM 30.0 °F 20.0 °F 27.1 °F 89% 30.01 in 3.0 mi West 12.7 mph - 0.00 in   Overcast
5:08 AM 30.2 °F 21.3 °F 26.6 °F 86% 29.98 in 3.0 mi West 10.4 mph - 0.00 in   Overcast
5:24 AM 30.2 °F 20.2 °F 26.6 °F 86% 29.98 in 4.0 mi West 12.7 mph - 0.00 in   Overcast
5:41 AM 30.2 °F 21.3 °F 26.6 °F 86% 29.99 in 5.0 mi West 10.4 mph - 0.00 in   Overcast
5:56 AM 30.0 °F 23.2 °F 27.1 °F 89% 30.02 in 5.0 mi West 6.9 mph - 0.00 in   Overcast
6:36 AM 30.2 °F 21.3 °F 26.6 °F 86% 30.00 in 4.0 mi West 10.4 mph - 0.00 in   Overcast
6:56 AM 30.0 °F 22.4 °F 27.1 °F 89% 30.04 in 4.0 mi West 8.1 mph - 0.00 in   Overcast
7:56 AM 30.0 °F 22.4 °F 26.1 °F 85% 30.07 in 5.0 mi West 8.1 mph - 0.00 in   Overcast
8:56 AM 30.0 °F 23.2 °F 26.1 °F 85% 30.10 in 4.0 mi West 6.9 mph - 0.00 in   Overcast
9:18 AM 30.2 °F 22.6 °F 24.8 °F 80% 30.07 in 4.0 mi West 8.1 mph - 0.00 in   Overcast
9:56 AM 30.0 °F 22.4 °F 25.2 °F 82% 30.13 in 5.0 mi West 8.1 mph - 0.00 in   Haze
10:56 AM 30.0 °F 24.1 °F 24.1 °F 79% 30.14 in 5.0 mi West 5.8 mph - 0.00 in   Haze
11:56 AM 30.0 °F 21.7 °F 23.0 °F 75% 30.15 in 5.0 mi WSW 9.2 mph - 0.00 in   Overcast
12:39 PM 30.2 °F 20.8 °F 23.0 °F 75% 30.11 in 5.0 mi WSW 11.5 mph - 0.00 in   Haze
12:56 PM 30.0 °F 21.1 °F 23.0 °F 75% 30.14 in 5.0 mi WSW 10.4 mph - 0.00 in   Haze
1:56 PM 30.0 °F 20.0 °F 23.0 °F 75% 30.15 in 5.0 mi SSW 12.7 mph - N/A   Haze
2:56 PM 30.0 °F 19.5 °F 22.1 °F 72% 30.15 in 6.0 mi WSW 13.8 mph - N/A   Haze
3:56 PM 30.0 °F 21.7 °F 21.0 °F 69% 30.16 in 6.0 mi WSW 9.2 mph - N/A   Haze
4:56 PM 30.0 °F 22.4 °F 20.1 °F 67% 30.18 in 6.0 mi SSW 8.1 mph - N/A   Haze
5:45 PM 28.4 °F 21.2 °F 19.4 °F 69% 30.15 in 7.0 mi SW 6.9 mph - N/A   Scattered Clouds
5:56 PM 28.0 °F 22.8 °F 20.1 °F 72% 30.19 in 7.0 mi SW 4.6 mph - N/A   Clear
6:56 PM 27.1 °F 21.8 °F 19.0 °F 72% 30.20 in 7.0 mi South 4.6 mph - N/A   Clear
7:56 PM 26.1 °F 21.9 °F 19.0 °F 75% 30.22 in 7.0 mi South 3.5 mph - N/A   Clear
8:56 PM 25.2 °F 20.9 °F 19.0 °F 78% 30.24 in 7.0 mi South 3.5 mph - N/A   Clear
11:56 PM 24.1 °F 18.2 °F 19.0 °F 81% 30.27 in 7.0 mi South 4.6 mph - N/A   Clear